User: anonymous   Login
Location: ??????
(42.0089°N, 44.3281°E)
Time: 09:14:06
(UTC+00:00)
Language:

Cosmos 2322 Rocket - Orbit

View from above orbital plane
View from above orbital plane
View from above satellite
View from above satellite

Ground track
Ground track

The orbit data is extracted from the following two-line orbital elements,

1 23705U 95058B   22137.52083414 -.00000226  00000-0 -92016-4 0  9990
2 23705  71.0229 222.1889 0010155  78.9124 281.3140 14.15173890370878
Epoch (UTC): 17 May 2022 12:30:00
Eccentricity: 0.0010155
inclination: 71.0229°
perigee height: 834 km
apogee height: 849 km
right ascension of ascending node: 222.1889°
argument of perigee: 78.9124°
revolutions per day: 14.15173890
mean anomaly at epoch: 281.3140°
orbit number at epoch: 37087

The dashed part of the orbit path shows where the satellite is in the earth's shadow,  

DLR